Regional Weather Roundup
Issued by NWS Charleston, WV

Home | Current Version | Previous Version | Text Only | Print | Product List | Glossary Off
Versions: 1 2 3 4 5 6 7 8 9 10 11 12 13 14 15 16 17 18 19 20 21 22 23 24 25 26 27 28 29 30 31 32 33 34 35 36 37 38 39 40 41 42 43 44 45 46 47 48 49 50

000
ASUS41 KRLX 090510
RWRRLX
West Virginia Regional Weather Roundup
National Weather Service Charleston WV
1200 AM EST TUE FEB 09 2016

Note: "fair" indicates few or no clouds below 12,000 feet with no
significant weather and/or obstructions to visibility.

WVZ003-090600-
Northern Panhandle of West Virginia

CITY           SKY/WX    TMP DP  RH WIND       PRES   REMARKS
WHEELING       CLOUDY    32  30  92 S6        29.57F FOG
$$

WVZ009-090600-
Northwest West Virginia

CITY           SKY/WX    TMP DP  RH WIND       PRES   REMARKS
PARKERSBURG    LGT SNOW  32  31  96 SW6       29.63F FOG
$$

WVZ006-090600-
Western West Virginia

CITY           SKY/WX    TMP DP  RH WIND       PRES   REMARKS
HUNTINGTON     LGT SNOW  32  28  85 W8        29.66F FOG
$$

WVZ015-090600-
West Central West Virginia

CITY           SKY/WX    TMP DP  RH WIND       PRES   REMARKS
CHARLESTON     CLOUDY    34  29  82 SW10      29.64F
$$

WVZ022-031-090600-
North Central West Virginia

CITY           SKY/WX    TMP DP  RH WIND       PRES   REMARKS
CLARKSBURG     LGT SNOW  32  32 100 S5        29.59F VSB 1
MORGANTOWN     CLOUDY    34  29  82 SW3       29.59F HAZE
$$

WVZ025-035-042-045-090600-
Southern West Virginia

CITY           SKY/WX    TMP DP  RH WIND       PRES   REMARKS
BECKLEY        LGT SNOW  29  25  85 W9G17     29.59S FOG
LOGAN          LGT SNOW  30  30 100 W10G18    29.63F VSB 1
BLUEFIELD      LGT SNOW  27  25  92 W5        29.59F VSB 1
LEWISBURG      CLOUDY    32  28  83 SW3       29.58F
$$

WVZ047-090600-
Northern Mountains of West Virginia

CITY           SKY/WX    TMP DP  RH WIND       PRES   REMARKS
ELKINS         LGT SNOW  31  26  82 SW5       29.58F
$$

WVZ052-090600-
Eastern Panhandle of West Virginia

CITY           SKY/WX    TMP DP  RH WIND       PRES   REMARKS
MARTINSBURG    MIX PCPN  36  32  85 SE5       29.61F
PETERSBURG     CLOUDY    34  32  91 CALM      29.60F
$$



USA.gov is the U.S. government's official web portal to all federal, state and local government web resources and services.